AirNav   Everest Fuels
 
 1032 users online  

8CO7 Colorado Antique Field Airport
Niwot, Colorado, USA

GOING TO NIWOT?


FAA INFORMATION EFFECTIVE 18 JUNE 2020

Location

FAA Identifier: 8CO7
Lat/Long: 40-07-20.9460N 105-10-20.9470W
40-07.349100N 105-10.349117W
40.1224850,-105.1724853
(estimated)
Elevation: 5069 ft. / 1545 m (estimated)
Variation: 12E (1985)
From city: 1 mile N of NIWOT, CO
Time zone: UTC -6 (UTC -7 during Standard Time)
Zip code: 80503

Airport Operations

Airport use: Private use. Permission required prior to landing
Activation date: 03/1979
Control tower: no
ARTCC: DENVER CENTER
FSS: DENVER FLIGHT SERVICE STATION
Attendance: UNATNDD
Wind indicator: yes
Segmented circle: no

Airport Communications

WX AWOS-3 at LMO (2.5 nm N): 120.0 (303-684-7545)
WX AWOS-3 at BDU (6 nm SW): 118.825 (303-541-9540)
WX AWOS-3 at EIK (9 nm SE): 133.825 (303-604-4339)
WX AWOS-3 at BJC (13 nm S): PHONE 720-887-8067

Nearby radio navigation aids

VOR radial/distance  VOR name  Freq  Var
BJCr342/12.7JEFFCO VOR/DME115.4011E
DVVr290/28.7MILE HIGH VORTAC114.7008E
DENr300/30.0DENVER VOR/DME117.9008E
FQFr305/36.3FALCON VORTAC116.3011E
GLLr218/36.4GILL VOR/DME114.2013E

Airport Services

Runway Information

Runway 7/25

Dimensions: 3400 x 150 ft. / 1036 x 46 m
Surface: turf
RUNWAY 7  RUNWAY 25
Traffic pattern: rightleft
Obstructions: 12 ft. hedge
25-FOOT PLINE 1300 FEET FROM THR.
23 ft. pline
35-FOOT TREES ON NORTH AND SOUTH SIDE OF CNTLN.

Airport Ownership and Management from official FAA records

Ownership: Privately-owned
Owner: GREINER/BECKER/BERMAN
8195 N 81ST ST
LONGMONT, CO 80503
Phone 303-652-2054
Manager: J B GREINER
8195 N 81ST ST
LONGMONT, CO 80503
Phone 303-652-0676

Airport Operational Statistics

Aircraft based on the field: 5
Single engine airplanes: 5
    

Additional Remarks

FOR CD CTC DENVER APCH AT 303-342-1916.

Instrument Procedures

There are no published instrument procedures at 8CO7.

Some nearby airports with instrument procedures:

KLMO - Vance Brand Airport (3 nm N)
KEIK - Erie Municipal Airport (9 nm SE)
KBJC - Rocky Mountain Metropolitan Airport (13 nm S)
KFNL - Northern Colorado Regional Airport (21 nm N)
KDEN - Denver International Airport (28 nm SE)
 
Loc | Ops | Rwys | IFR | FBO | Links
Com | Nav | Svcs | Stats | Notes

AirBoss

 
Area around 8CO7 (Colorado Antique Field Airport)
 
Road maps at: MapQuest Bing Google
 
Aerial photo
No photo
 
Sectional chart

 
Airport distance calculator
Flying to Colorado Antique Field Airport? Find the distance to fly.

From to 8CO7

Sunrise and sunset
Times for 08-Jul-2020
 Local
(UTC-6)
 Zulu
(UTC)
Morning civil twilight05:0811:08
Sunrise05:4111:41
Sunset20:3102:31
Evening civil twilight21:0303:03

Current date and time
Zulu (UTC)  08-Jul-2020 23:28:50
Local (UTC-6)  08-Jul-2020 17:28:50
 
METAR
KLMO 
3nm N 
082315Z AUTO 29018G24KT 10SM CLR A2988 RMK AO2
K1V5 
6nm SW 
AWOS 118.825 303-541-9540
No observation available
KBDU 
6nm SW 
082312Z AUTO 29009G17KT 10SM CLR 35/M02 A2988 RMK AO2
KEIK 
9nm SE 
082312Z AUTO 34008G18KT 10SM CLR 36/M08 A2992 RMK AO2 T03571078
KBJC 
13nm S 
082245Z 00000KT 10SM FEW100 34/M06 A2993
TAF
KBJC 
13nm S 
082205Z 0822/0918 26007G15KT P6SM SCT120 FM090300 29007KT P6SM SCT130 FM091100 VRB04KT P6SM SKC
NOTAMs
Click for the latest NOTAMs
NOTAMs are issued by the DoD/FAA and will open in a separate window not controlled by AirNav.

 

 
 

Would you like to see your business listed on this page?

 If your business provides an interesting product or service to pilots, flight crews, aircraft, or users of the Colorado Antique Field Airport, you should consider listing it here.  To start the listing process, click on the button below
 
Add a business
 

Other Pages about Colorado Antique Field Airport

Update a link
 
Copyright © AirNav, LLC. All rights reserved. Privacy Policy  Contact